Weather History for El Dorado, AR

Change the Weather History Date:

Thursday, February 21, 2013

  Actual Average Record
Temperature  
Mean Temperature 48 °F 49 °F  
Max Temperature 58 °F 61 °F 85 °F (1996)
Min Temperature 37 °F 38 °F 20 °F (1978)
Degree Days  
Heating Degree Days 17 16  
Month to date heating degree days 343 382  
Since 1 July heating degree days 1898 2125  
Cooling Degree Days 0 0  
Month to date cooling degree days 0 0  
Year to date cooling degree days 6 2  
Moisture  
Dew Point 38 °F    
Average Humidity 80    
Maximum Humidity 100    
Minimum Humidity 59    
Precipitation  
Precipitation 0.26 in 0.17 in 1.88 in (2003)
Month to date precipitation 2.63 3.56  
Year to date precipitation 6.29 7.86  
Snow  
Snow 0.00 in - - ()
Month to date snowfall 0.0  
Since 1 July snowfall 0.1  
Snow Depth 0.00 in    
Sea Level Pressure  
Sea Level Pressure 29.83 in    
Wind  
Wind Speed 9 mph (East)    
Max Wind Speed 21 mph    
Max Gust Speed 24 mph    
Visibility 8 miles    
Events Rain , Thunderstorm    
T = Trace of Precipitation, MM = Missing Value Source: NWS Daily Summary

Daily Weather History Graph

Daily Weather History Graph

Search for Another Location

Airport:

Trip Planner

Search our weather history database for the weather conditions in past years. The results will help you decide how hot, cold, wet, or windy it might be!

Date:

Astronomy

Feb. 21, 2013 Rise Set
Actual Time 6:48 AM CST 6:01 PM CST
Civil Twilight 6:23 AM CST 6:26 PM CST
Nautical Twilight 5:54 AM CST 6:55 PM CST
Astronomical Twilight 5:25 AM CST 7:24 PM CST
Moon 2:24 PM CST (2/21) 3:45 AM CST (2/21)
Length of Visible Light 12h 03m
Length of Day
11h 13m
Waxing Gibbous, 84% of the Moon is Illuminated
Feb 21
Waxing Gibbous
Feb 25
Full
Mar 4
Last Quarter
Mar 11
New
Mar 19
First Quarter

Hourly Weather History & Observations

Time (CST) Temp. Windchill Dew Point Humidity Pressure Visibility Wind Dir Wind Speed Gust Speed Precip Events Conditions
12:53 AM 37.0 °F 29.8 °F 28.0 °F 70% 30.04 in 10.0 mi ENE 10.4 mph - 0.00 in   Overcast
1:53 AM 37.9 °F 30.0 °F 27.0 °F 65% 30.01 in 10.0 mi ENE 12.7 mph - N/A   Overcast
2:53 AM 37.9 °F 30.9 °F 27.0 °F 65% 29.98 in 10.0 mi ENE 10.4 mph - N/A   Overcast
3:06 AM 37.4 °F 28.9 °F 26.6 °F 65% 29.97 in 10.0 mi ENE 13.8 mph 19.6 mph N/A   Overcast
3:53 AM 39.0 °F 31.4 °F 28.0 °F 65% 29.95 in 10.0 mi ENE 12.7 mph - N/A   Overcast
4:53 AM 39.0 °F 33.4 °F 27.0 °F 62% 29.97 in 10.0 mi ENE 8.1 mph - N/A   Overcast
5:53 AM 39.9 °F 33.4 °F 28.0 °F 63% 29.95 in 10.0 mi ENE 10.4 mph - N/A   Overcast
6:53 AM 39.0 °F 32.3 °F 30.9 °F 73% 29.91 in 7.0 mi East 10.4 mph - 0.03 in Rain Light Rain
7:53 AM 41.0 °F 33.5 °F 30.9 °F 67% 29.86 in 10.0 mi East 13.8 mph 21.9 mph 0.00 in   Overcast
8:53 AM 41.0 °F 33.9 °F 34.0 °F 76% 29.83 in 10.0 mi ESE 12.7 mph - 0.02 in Rain Light Rain
9:17 AM 41.0 °F 33.1 °F 33.8 °F 76% 29.79 in 10.0 mi ESE 15.0 mph - 0.00 in Rain Light Rain
9:33 AM 42.8 °F 36.6 °F 33.8 °F 70% 29.77 in 10.0 mi ESE 11.5 mph 23.0 mph 0.00 in Rain Light Rain
9:53 AM 44.1 °F 38.1 °F 33.1 °F 65% 29.80 in 9.0 mi SE 11.5 mph 19.6 mph 0.00 in Rain Light Rain
10:17 AM 42.8 °F 37.5 °F 35.6 °F 76% 29.78 in 7.0 mi SE 9.2 mph - 0.02 in Rain , Thunderstorm Light Rain
10:27 AM 42.8 °F 36.6 °F 37.4 °F 81% 29.78 in 1.8 mi SE 11.5 mph 18.4 mph 0.05 in Rain , Thunderstorm Thunderstorms and Rain
10:38 AM 41.0 °F 35.8 °F 37.4 °F 87% 29.79 in 4.0 mi SE 8.1 mph - 0.14 in Rain , Thunderstorm Light Thunderstorms and Rain
10:53 AM 42.8 °F 39.3 °F 37.4 °F 81% 29.78 in 7.0 mi Variable 5.8 mph - N/A Rain , Thunderstorm Light Rain
11:02 AM 42.8 °F 37.5 °F 39.2 °F 87% 29.78 in 7.0 mi SE 9.2 mph - 0.01 in Rain Light Rain
11:53 AM 44.1 °F 40.1 °F 41.0 °F 89% 29.76 in 10.0 mi SE 6.9 mph - 0.01 in   Overcast
12:53 PM 46.9 °F - 45.0 °F 93% 29.72 in 5.0 mi SE 6.9 mph - 0.03 in Rain Light Rain
1:03 PM 48.2 °F - 46.4 °F 93% 29.71 in 10.0 mi SE 5.8 mph - 0.00 in Rain Light Rain
1:53 PM 52.0 °F - 48.9 °F 89% 29.70 in 10.0 mi SSE 5.8 mph - 0.00 in   Overcast
2:53 PM 55.9 °F - 53.1 °F 90% 29.67 in 10.0 mi SSE 4.6 mph - 0.00 in Rain Light Rain
3:24 PM 57.2 °F - 55.4 °F 94% 29.66 in 10.0 mi Calm Calm - 0.00 in   Overcast
3:53 PM 55.9 °F - 54.0 °F 93% 29.68 in 10.0 mi NW 17.3 mph 24.2 mph 0.00 in   Overcast
4:08 PM 48.2 °F - 48.2 °F 100% 29.70 in 9.0 mi NW 13.8 mph - N/A   Overcast
4:53 PM 44.1 °F 38.6 °F 43.0 °F 96% 29.75 in 3.0 mi NW 10.4 mph 19.6 mph 0.02 in Rain Rain
5:53 PM 43.0 °F 37.7 °F 42.1 °F 97% 29.77 in 10.0 mi NW 9.2 mph - 0.00 in   Overcast
6:53 PM 42.1 °F 37.7 °F 41.0 °F 96% 29.82 in 10.0 mi NW 6.9 mph - N/A   Overcast
7:24 PM 42.8 °F 38.6 °F 41.0 °F 93% 29.84 in 2.5 mi NW 6.9 mph - N/A   Overcast
7:53 PM 41.0 °F 35.2 °F 41.0 °F 100% 29.86 in 2.0 mi NW 9.2 mph - N/A   Overcast
8:13 PM 41.0 °F 35.2 °F 39.2 °F 93% 29.88 in 3.0 mi NNW 9.2 mph - N/A   Overcast
8:53 PM 41.0 °F 36.4 °F 39.9 °F 96% 29.89 in 9.0 mi North 6.9 mph - N/A   Overcast
9:53 PM 39.9 °F 37.8 °F 39.0 °F 97% 29.90 in 10.0 mi North 3.5 mph - N/A   Overcast
10:53 PM 39.9 °F - 39.0 °F 97% 29.91 in 7.0 mi Calm Calm - N/A   Overcast
11:34 PM 39.2 °F 37.0 °F 39.2 °F 100% 29.91 in 1.8 mi SE 3.5 mph - N/A   Overcast
11:53 PM 39.0 °F - 39.0 °F 100% 29.91 in 1.0 mi Calm Calm - N/A   Overcast